Simultaneous Nadir Overpasses (SNOs) Predictions

Prediction of SNOs between LANDSAT-8 and METOP-A Satellite Orbit:

Table of predicted SNOs for the next 14.0 days since TLE Epoch: 8/24/2019
Index Date (LANDSAT-8) Time (LANDSAT-8) Lat,Lon (LANDSAT-8) SZA (LANDSAT-8 ) Date (METOP-A) Time (METOP-A) Lat,Lon (METOP-A) SZA (METOP-A ) Distance(km) Time Diff (sec)
1 08/26/2019 03:24:06 -81.47, -4.59 106.43 08/26/2019 03:23:18 -81.47, -4.60 106.45 0.73 48
2 08/26/2019 04:13:32 81.47, 163.16 73.60 08/26/2019 04:13:58 81.47, 162.99 73.60 2.83 26
3 08/28/2019 22:58:21 -81.48, 62.20 105.38 08/28/2019 22:57:42 -81.47, 62.07 105.42 2.31 39
4 08/28/2019 23:47:48 81.47,-130.48 74.60 08/28/2019 23:48:22 81.47,-130.37 74.63 1.81 34
5 08/31/2019 18:32:37 -81.46, 128.17 104.42 08/31/2019 18:32:06 -81.47, 128.34 104.41 3.01 31
6 08/31/2019 19:22:03 81.47, -64.13 75.61 08/31/2019 19:22:46 81.47, -64.13 75.63 0.86 43
7 09/03/2019 14:06:52 -81.48,-165.09 103.33 09/03/2019 14:06:30 -81.47,-165.00 103.33 1.56 22
8 09/03/2019 14:56:18 81.48, 2.58 76.69 09/03/2019 14:57:10 81.47, 2.50 76.70 1.35 52
9 09/06/2019 09:41:08 -81.47, -98.77 102.29 09/06/2019 09:40:55 -81.47, -98.74 102.29 0.48 13




NCC Satellite Simultaneous Nadir Overpasses (SNOs) Prediction Service
